RADFXSAT (FOX-1B) (43017 NORAD) Tracking and Keplerian Element Data

This shows tracking and keplerian element data for the satellite.

Feedback or suggestion? Click here.




ElementValue
Catalog43017
NameRADFXSAT (FOX-1B)
Epoch Orbit20798
Epoch Day268.960047
Epoch Year2021
RAAN168.9144
Inclination97.6951
Eccentricity0.0253691
Argument of Perigee332.7337
Mean Anonmoly26.0741
Mean Motion14.79769508
Decay Rate2.179E-05
L11 43017U 17073E 21268.96004700 .00002179 00000-0 17235-3 0 9998
L22 43017 97.6951 168.9144 0253691 332.7337 26.0741 14.79769508207983

Live tracking and technical data element details for RADFXSAT (FOX-1B) (NORAD 43017). RADFXSAT (FOX-1B) can be tracked NOW for your location showing map with azimuth and elevation plus other details from your city location.

Track the satellite on the map from your city or location and see movement details for azimuth, elevation, latitude, longitude, range, height, and movement on the map or in text.







IsCatalogInMostPopularTable: catalog: 43017, numindb: 983
Update: records affected: 1



GetName: 43017 RADFXSAT (FOX-1B)

Hit Count: updated at: Mon, 27 Sep 2021 00:14:11 GMT